Regional Weather Roundup
Issued by NWS Charleston, WV

Home | Current Version | Previous Version | Text Only | Print | Product List | Glossary On
Versions: 1 2 3 4 5 6 7 8 9 10 11 12 13 14 15 16 17 18 19 20 21 22 23 24 25 26 27 28 29 30 31 32 33 34 35 36 37 38 39 40 41 42 43 44 45 46 47 48 49 50
000
ASUS41 KRLX 310110
RWRRLX
West Virginia Regional Weather Roundup
National Weather Service Charleston WV
900 PM EDT THU JUL 30 2015

Note: "fair" indicates few or no clouds below 12,000 feet with no
significant weather and/or obstructions to visibility.

WVZ003-310200-
Northern Panhandle of West Virginia

CITY           SKY/WX    TMP DP  RH WIND       PRES   REMARKS
WHEELING       PTCLDY    77  56  48 W8        29.99R
$$

WVZ009-310200-
Northwest West Virginia

CITY           SKY/WX    TMP DP  RH WIND       PRES   REMARKS
PARKERSBURG    CLEAR     76  58  53 W5        30.02R
$$

WVZ006-310200-
Western West Virginia

CITY           SKY/WX    TMP DP  RH WIND       PRES   REMARKS
HUNTINGTON     CLEAR     76  58  53 NW3       30.01S
$$

WVZ015-310200-
West Central West Virginia

CITY           SKY/WX    TMP DP  RH WIND       PRES   REMARKS
CHARLESTON     PTCLDY    76  61  59 NW5       30.01R
$$

WVZ022-031-310200-
North Central West Virginia

CITY           SKY/WX    TMP DP  RH WIND       PRES   REMARKS
CLARKSBURG     MOCLDY    76  58  53 W5        30.00R
MORGANTOWN     PTCLDY    81  54  39 CALM      30.00R
$$

WVZ025-035-042-045-310200-
Southern West Virginia

CITY           SKY/WX    TMP DP  RH WIND       PRES   REMARKS
BECKLEY        PTCLDY    71  59  65 NW6       30.09R
LOGAN            N/A     75  63  64 CALM      30.02R
BLUEFIELD      CLEAR     73  59  61 VRB3      30.12R
LEWISBURG      CLEAR     74  58  58 NW5       30.08R
$$

WVZ047-310200-
Northern Mountains of West Virginia

CITY           SKY/WX    TMP DP  RH WIND       PRES   REMARKS
ELKINS         MOCLDY    69  62  78 CALM      30.05R
$$

WVZ052-310200-
Eastern Panhandle of West Virginia

CITY           SKY/WX    TMP DP  RH WIND       PRES   REMARKS
MARTINSBURG    PTCLDY    81  57  43 W9        29.91R
PETERSBURG     CLEAR    N/A N/A N/A CALM      29.98R
$$



USA.gov is the U.S. government's official web portal to all federal, state and local government web resources and services.